Wind_Speed
12 12 11 12 11 11 10 9 7 6 6 7 7 8 8 8 9 9 9 10 10 10 10 10 10 10 10 10 10 10 10 10 10 10 10 10 10 9 10 9 9 9 9
12 12 11 11 11 10 10 8 7 6 5 6 6 7 7 8 8 9 9 10 10 10 10 9 9 10 10 10 10 10 10 10 10 10 10 10 9 9 9 10 9 9 9
12 11 10 10 10 10 9 8 7 6 6 6 6 6 7 7 8 9 9 9 9 9 9 9 9 9 9 9 10 10 10 9 9 9 9 9 9 9 10 10 9 9 9
11 11 10 10 10 9 9 8 7 6 6 6 6 6 6 7 7 8 8 8 8 8 8 8 9 9 9 9 9 9 9 9 9 9 9 9 9 9 10 10 9 9 8
11 10 10 10 9 9 8 8 7 6 6 5 5 5 5 6 6 7 7 7 7 8 8 8 8 8 8 9 8 8 8 8 9 9 9 9 9 9 9 9 9 9 8
10 9 9 9 9 8 8 7 6 6 5 5 5 5 5 5 5 6 6 7 7 7 7 8 8 8 8 8 8 8 8 8 8 8 9 8 8 9 9 9 9 9 8
10 9 9 9 9 8 8 7 6 6 5 5 5 5 4 4 4 4 5 6 6 7 7 7 7 7 7 8 8 8 8 8 8 8 8 8 8 8 8 8 9 8 8
10 9 9 9 9 8 8 8 7 6 5 5 5 5 4 4 4 4 5 5 5 6 6 6 7 7 7 7 7 7 7 7 8 8 8 7 8 8 8 8 8 8 8
10 9 9 9 9 8 8 7 6 5 5 5 5 4 3 3 3 4 4 4 5 5 5 6 6 7 7 7 6 6 6 6 7 8 7 7 7 7 7 8 8 7 7
10 9 9 9 8 7 7 7 6 5 5 4 4 4 3 3 3 3 3 4 4 5 5 6 6 6 6 6 6 6 6 5 6 7 7 7 7 7 7 7 7 7 6
11 10 9 9 9 8 7 7 6 5 5 5 4 3 3 3 3 2 3 4 4 4 4 5 5 5 5 5 5 5 5 5 5 5 6 6 6 6 6 6 7 6 6
12 11 11 10 9 8 8 7 6 6 5 4 4 3 3 3 3 3 3 3 3 4 4 4 4 4 5 4 4 4 5 5 5 5 5 5 5 6 6 6 6 6 6
11 11 10 10 9 9 8 8 7 6 5 4 3 3 3 4 4 4 4 3 3 3 4 4 4 4 4 4 4 4 4 4 4 4 4 4 4 5 5 5 5 5 5
12 11 9 9 9 9 8 7 7 6 5 4 4 4 4 4 4 4 4 4 3 3 3 4 3 4 4 4 4 3 3 4 4 4 3 3 4 4 3 3 4 4 4
13 12 10 8 8 8 8 7 6 6 5 4 3 3 4 4 4 3 3 3 3 3 3 3 3 3 3 3 3 3 3 3 3 3 3 3 3 3 3 2 2 2 2
13 12 11 9 8 8 8 7 7 6 5 4 3 3 3 3 3 3 3 3 2 2 2 2 3 3 3 3 3 2 2 2 2 2 2 2 2 2 2 2 1 1 2
13 13 12 10 9 8 8 7 7 6 5 4 4 3 3 2 2 2 2 2 2 1 2 2 2 2 2 2 2 2 2 1 1 1 1 1 2 1 1 2 2 2 2
13 13 13 12 10 9 8 7 7 6 5 4 4 3 3 2 2 1 1 1 1 1 1 1 1 1 1 0 0 0 0 1 0 0 1 2 2 3 3 3 3 3 3
13 13 13 12 11 10 9 8 7 6 5 4 3 3 2 1 1 0 1 1 1 1 1 1 2 2 2 2 2 2 1 1 2 2 2 3 4 4 4 5 5 5 5
12 13 13 12 11 10 9 9 7 5 4 3 3 2 2 1 0 1 2 2 2 2 2 3 3 3 3 3 3 3 3 3 3 4 5 5 6 6 6 7 7 7 7
11 11 12 12 11 10 9 9 7 6 4 3 3 3 1 1 1 2 2 2 3 3 3 4 4 4 4 4 4 5 5 5 6 6 6 7 7 8 8 8 9 9 9
10 11 11 11 10 9 9 8 7 5 4 4 4 3 2 2 2 3 4 3 4 5 5 5 5 5 6 5 6 6 7 7 7 7 8 8 9 10 10 11 12 12 11
9 10 10 10 10 9 8 8 7 6 5 5 5 5 4 4 4 4 5 5 5 6 6 7 7 7 7 7 7 7 8 9 9 9 10 10 11 11 12 12 13 13 13
9 10 10 10 10 9 8 7 6 6 5 6 6 5 5 5 6 6 6 6 6 7 7 7 7 8 9 9 9 9 9 10 10 11 11 12 13 13 13 13 14 14 15
10 10 10 10 10 9 8 7 6 6 6 6 6 5 6 6 6 7 7 7 7 7 8 8 9 9 10 10 11 11 11 11 11 12 13 13 14 15 15 15 15 15 16
10 10 10 10 9 8 8 7 7 6 6 7 6 6 6 6 6 7 7 7 7 8 9 9 10 11 11 11 12 12 13 13 13 14 14 15 15 16 16 17 17 18 18
Wind_Direction
73 75 73 73 69 65 63 64 68 73 84 89 89 92 95 100 104 108 106 103 101 97 94 92 90 89 87 87 86 84 82 81 81 78 77 78 79 79 77 76 77 78 76
72 72 72 70 68 64 60 57 58 68 77 82 85 89 95 101 105 108 107 104 102 98 95 93 90 90 89 88 86 85 83 82 79 77 77 78 79 78 76 76 76 77 76
67 66 66 65 64 61 58 56 58 69 72 74 81 89 95 101 106 108 107 105 103 101 98 93 92 92 91 90 88 85 83 81 78 75 76 78 78 77 76 77 76 77 78
65 65 64 61 61 60 58 54 56 60 61 65 78 88 97 102 107 109 109 107 105 103 99 95 94 91 89 89 87 84 81 80 74 73 73 75 76 76 76 77 77 78 80
61 62 62 59 59 57 57 53 48 49 55 61 75 84 88 97 107 111 112 109 107 104 97 95 93 90 88 85 84 82 80 78 75 73 74 75 75 75 76 76 76 77 80
59 59 59 58 56 55 55 51 43 50 52 59 69 77 82 91 104 108 109 105 104 99 93 91 90 89 86 83 82 81 78 74 71 72 74 75 75 75 75 75 74 75 77
57 57 57 59 58 58 58 54 51 49 54 60 66 72 79 89 96 97 104 102 99 96 92 89 88 86 84 83 81 82 80 77 74 73 73 74 74 75 75 72 72 74 76
54 57 59 63 59 59 54 52 50 49 54 58 62 67 79 85 91 97 105 103 98 96 92 91 87 85 86 86 84 83 81 82 80 77 74 74 72 74 74 71 70 73 76
53 55 56 58 57 54 53 48 45 48 59 61 66 71 81 92 94 90 99 100 99 95 92 91 87 87 91 90 87 85 83 83 83 78 74 71 69 71 71 69 69 71 75
50 52 56 56 55 55 55 49 46 50 55 60 70 81 89 93 85 84 101 103 100 95 91 90 87 87 90 91 89 85 81 81 83 77 73 69 69 70 71 70 70 71 72
48 51 54 56 53 54 55 50 49 50 53 60 70 84 90 88 82 95 114 109 102 98 96 93 92 92 92 92 88 80 73 71 79 77 71 69 71 72 73 72 72 73 75
45 45 46 51 49 51 51 49 50 51 54 60 63 73 91 101 99 102 112 112 105 99 97 97 100 97 95 95 89 77 72 71 75 79 71 71 70 71 74 74 74 75 75
42 45 44 46 46 47 45 41 48 48 56 60 57 69 99 107 100 105 107 114 108 101 95 95 104 103 95 92 88 81 76 70 76 85 73 69 68 70 75 73 72 72 71
41 39 37 43 46 42 38 43 47 42 45 55 62 69 90 100 100 105 106 111 109 105 93 90 99 103 102 95 90 84 76 73 80 88 79 67 66 70 76 75 69 66 65
36 38 37 36 42 43 41 42 43 36 33 56 74 84 88 93 99 97 104 105 103 100 90 84 92 103 110 101 99 89 81 78 76 81 77 72 68 65 66 63 58 59 58
30 32 37 37 39 37 38 43 43 39 49 62 70 82 89 94 102 104 109 110 111 108 97 91 98 99 91 89 91 89 89 76 72 78 72 65 53 46 43 38 32 21 16
29 29 31 34 38 40 41 43 41 41 56 57 61 64 75 99 108 118 119 120 122 123 116 106 109 102 94 86 86 88 91 75 65 54 26 20 11 357 347 344 329 324 322
28 27 28 31 36 39 43 42 39 41 48 55 65 61 72 99 106 107 145 160 160 170 123 123 141 161 164 154 139 183 89 76 68 310 324 331 331 327 318 316 308 300 302
27 26 27 29 32 35 35 32 35 40 46 56 62 65 72 97 102 118 179 215 230 231 228 218 212 228 239 247 255 267 282 291 300 290 298 299 301 303 300 296 293 286 286
23 24 23 23 25 24 24 25 31 34 38 50 49 53 56 34 304 255 247 246 247 239 243 244 239 236 246 250 258 267 276 278 288 285 289 291 293 292 290 288 288 284 277
16 16 15 15 17 19 17 16 20 27 30 38 31 14 343 308 297 245 255 253 251 251 254 253 250 246 250 253 261 271 277 277 280 280 280 281 283 284 285 285 285 283 276
5 6 5 4 7 9 11 11 13 15 20 17 9 346 312 281 274 253 257 261 260 257 254 253 254 255 259 262 266 270 275 275 276 278 279 277 277 280 283 283 285 284 279
356 357 356 356 360 359 359 3 4 3 359 350 351 343 322 283 281 276 265 268 263 260 255 254 255 258 260 262 267 271 275 278 279 276 277 278 280 282 285 284 284 281 280
341 345 347 348 352 354 351 352 357 353 341 342 343 337 324 297 282 282 274 270 269 268 261 257 262 263 265 265 269 272 274 277 277 276 278 279 281 281 282 284 285 284 282
330 334 338 342 346 350 348 348 349 347 343 339 337 330 321 307 290 286 279 270 269 267 266 263 264 267 269 268 272 274 274 277 278 277 279 281 281 281 283 284 287 285 285
321 322 327 333 339 344 347 350 352 350 347 339 333 325 316 308 296 289 284 274 268 264 267 269 267 267 267 270 275 276 275 277 280 278 279 280 282 283 284 284 284 282 283
Height
5901 5900 5901 5901 5901 5901 5901 5901 5900 5900 5900 5900 5900 5900 5899 5899 5899 5899 5899 5899 5898 5898 5898 5898 5898 5898 5898 5897 5897 5897 5896 5896 5896 5895 5895 5894 5893 5893 5892 5892 5891 5891 5891
5902 5902 5902 5902 5902 5902 5902 5902 5902 5902 5902 5902 5901 5901 5901 5901 5901 5900 5900 5900 5900 5899 5899 5899 5899 5899 5899 5899 5898 5898 5898 5898 5897 5897 5896 5895 5895 5894 5893 5893 5893 5892 5892
5904 5904 5904 5904 5904 5904 5904 5904 5903 5903 5903 5903 5903 5903 5902 5902 5902 5902 5902 5901 5901 5901 5901 5901 5901 5900 5900 5900 5900 5899 5899 5899 5898 5898 5897 5897 5896 5895 5895 5894 5894 5893 5893
5905 5905 5905 5905 5905 5905 5905 5905 5905 5905 5905 5905 5904 5904 5904 5904 5903 5903 5903 5903 5903 5903 5902 5902 5902 5902 5902 5901 5901 5900 5900 5900 5899 5899 5898 5898 5898 5897 5896 5896 5895 5895 5894
5907 5907 5907 5907 5907 5907 5907 5906 5906 5906 5906 5906 5906 5906 5905 5905 5905 5904 5904 5904 5904 5904 5904 5904 5903 5903 5903 5903 5902 5902 5902 5901 5901 5900 5900 5899 5899 5898 5898 5897 5897 5896 5896
5909 5909 5908 5908 5908 5908 5908 5907 5907 5907 5907 5907 5907 5907 5907 5906 5906 5906 5906 5905 5905 5905 5905 5905 5905 5905 5904 5904 5904 5903 5903 5902 5902 5901 5901 5901 5900 5899 5899 5898 5898 5897 5897
5910 5910 5910 5909 5909 5909 5909 5908 5908 5908 5908 5908 5908 5908 5908 5908 5907 5907 5907 5907 5907 5907 5907 5906 5906 5906 5906 5906 5905 5905 5904 5904 5903 5903 5902 5902 5901 5901 5900 5900 5899 5898 5898
5912 5911 5910 5910 5910 5910 5910 5910 5909 5909 5909 5909 5909 5909 5909 5909 5908 5908 5908 5908 5908 5908 5908 5908 5907 5907 5907 5907 5907 5906 5906 5905 5904 5904 5904 5903 5903 5902 5902 5901 5900 5900 5899
5913 5912 5912 5911 5911 5911 5910 5910 5910 5910 5910 5910 5910 5910 5910 5909 5909 5909 5909 5909 5909 5909 5909 5909 5909 5908 5908 5908 5908 5907 5907 5906 5906 5905 5905 5905 5904 5903 5903 5902 5901 5901 5900
5914 5913 5913 5912 5912 5911 5911 5911 5911 5911 5910 5910 5910 5910 5910 5910 5910 5910 5910 5910 5910 5910 5910 5910 5910 5910 5909 5909 5908 5908 5908 5907 5907 5907 5906 5906 5905 5904 5904 5903 5903 5902 5902
5915 5914 5913 5913 5912 5912 5911 5911 5911 5911 5911 5911 5911 5911 5911 5911 5911 5911 5910 5910 5910 5910 5910 5910 5911 5911 5911 5910 5910 5909 5909 5908 5908 5908 5907 5907 5906 5905 5905 5904 5904 5903 5903
5916 5915 5915 5914 5913 5913 5912 5912 5912 5912 5911 5911 5911 5911 5911 5911 5911 5911 5911 5911 5911 5911 5911 5911 5911 5911 5911 5911 5911 5910 5910 5909 5909 5909 5908 5908 5907 5907 5906 5905 5905 5904 5904
5918 5916 5916 5915 5914 5914 5913 5913 5912 5912 5912 5912 5912 5912 5912 5912 5912 5912 5912 5912 5912 5912 5912 5912 5912 5912 5912 5912 5911 5911 5911 5910 5910 5909 5909 5909 5908 5908 5907 5906 5906 5905 5905
5919 5918 5917 5916 5915 5915 5914 5914 5913 5913 5912 5912 5912 5912 5912 5912 5913 5913 5913 5913 5913 5913 5912 5912 5912 5912 5913 5912 5912 5912 5911 5911 5910 5910 5910 5910 5909 5909 5908 5907 5907 5906 5906
5921 5919 5918 5917 5916 5916 5915 5914 5913 5913 5913 5913 5913 5913 5913 5913 5913 5913 5913 5913 5914 5913 5913 5913 5913 5913 5913 5913 5912 5912 5912 5912 5911 5911 5911 5910 5910 5909 5909 5908 5907 5907 5906
5922 5920 5919 5918 5917 5916 5915 5915 5914 5913 5913 5913 5913 5913 5913 5913 5914 5914 5914 5914 5914 5914 5914 5914 5913 5913 5913 5913 5913 5913 5912 5912 5912 5911 5911 5911 5910 5910 5909 5908 5908 5907 5907
5922 5921 5919 5918 5917 5916 5915 5915 5914 5914 5913 5913 5913 5913 5913 5913 5914 5914 5914 5914 5914 5914 5914 5914 5914 5914 5914 5913 5913 5913 5913 5912 5912 5912 5911 5911 5910 5910 5909 5909 5908 5907 5907
5923 5922 5920 5918 5917 5917 5916 5915 5915 5914 5913 5913 5913 5913 5913 5913 5914 5914 5914 5914 5914 5914 5914 5914 5914 5914 5914 5914 5913 5913 5913 5912 5912 5912 5911 5911 5910 5910 5909 5908 5908 5907 5906
5924 5922 5921 5920 5918 5917 5916 5915 5915 5914 5913 5913 5913 5913 5913 5913 5913 5914 5914 5914 5914 5914 5914 5914 5914 5914 5914 5914 5914 5913 5913 5912 5912 5911 5911 5911 5910 5909 5908 5908 5907 5906 5906
5925 5923 5922 5920 5919 5918 5917 5916 5915 5914 5913 5912 5912 5913 5913 5913 5913 5913 5913 5913 5913 5913 5913 5913 5913 5913 5913 5913 5913 5913 5912 5912 5911 5911 5910 5910 5909 5908 5907 5906 5906 5905 5904
5926 5924 5923 5921 5919 5918 5917 5915 5914 5913 5913 5912 5912 5912 5912 5912 5912 5912 5912 5912 5912 5913 5913 5912 5912 5912 5912 5912 5912 5912 5912 5911 5911 5910 5909 5908 5908 5907 5906 5905 5904 5903 5902
5926 5925 5923 5921 5919 5918 5917 5915 5914 5913 5912 5912 5911 5911 5911 5911 5911 5911 5911 5911 5911 5911 5911 5911 5911 5911 5911 5911 5911 5910 5910 5910 5909 5908 5908 5907 5906 5905 5904 5903 5902 5901 5900
5926 5925 5923 5921 5919 5918 5916 5915 5914 5913 5912 5911 5910 5910 5909 5909 5909 5909 5909 5909 5909 5909 5909 5909 5909 5909 5909 5909 5909 5909 5908 5908 5907 5907 5906 5905 5904 5903 5902 5901 5899 5898 5897
5926 5924 5923 5921 5919 5917 5915 5914 5913 5912 5911 5910 5909 5908 5908 5908 5908 5907 5907 5907 5907 5907 5907 5907 5907 5907 5907 5907 5907 5906 5906 5905 5905 5904 5903 5902 5901 5900 5899 5898 5897 5896 5894
5924 5923 5921 5920 5918 5916 5915 5913 5912 5911 5910 5909 5908 5907 5907 5906 5906 5905 5905 5905 5905 5905 5905 5905 5905 5905 5904 5904 5904 5904 5903 5903 5902 5901 5900 5899 5898 5897 5896 5895 5894 5892 5891
5923 5921 5920 5918 5917 5915 5914 5913 5911 5910 5909 5908 5907 5906 5905 5904 5904 5903 5903 5903 5903 5903 5903 5902 5902 5902 5902 5901 5901 5900 5900 5899 5899 5898 5897 5896 5895 5894 5892 5891 5890 5888 5887